Location: Novo Ouro Preto
(19.8840°S, 43.9844°W)
Time: 18:24:40
(UTC+00:00)

Gbstr 26 Del rocket - Visible Passes

Search period start: 15 January 2021 00:00
Search period end: 25 January 2021 00:00
Orbit: 493 x 1263 km, 51.8° (Epoch: 14 January)

Date Brightness Start Highest point End Pass type
(mag) Time Alt. Az. Time Alt. Az. Time Alt. Az.
15 Jan 4.5 06:30:38 10° SSW 06:35:43 50° SE 06:41:58 10° NE visible
16 Jan 4.0 06:25:43 10° SSW 06:30:53 67° SE 06:37:19 10° NE visible
17 Jan 6.5 04:38:06 10° SE 04:39:01 10° SE 04:39:58 10° SE visible
17 Jan 3.6 06:22:13 19° SW 06:26:04 88° SE 06:32:31 10° NE visible
18 Jan 5.0 06:24:25 29° NNE 06:24:25 29° NNE 06:27:37 10° NNE visible
